KINDAKUN POINT, BC current weather conditions

sailwx.info

Wind from 220 at 19 knots gusting 24

Air temperature 8.0° C
Dewpoint 6.0° C

Last reported at 2015-Mar-30 21:00 UTC.
Time now 2015-Mar-30 23:06 UTC

Location: N 53°19' W 132°46'.
View on Google Maps.

See reports from other nearby stations

  
Tides and Currents Weather Stations Pressure Air Temp Water Temp Dewpoint Dewpoint Depression Visibility Wind Speed Wind Dir Waves Ship Positions
date/time (UTC)wind fromknots sea level pressurealtimeterstation pressurevisibilityair tempwater tempwave heightnotes
2015-Mar-30 21:00 220 19 gusting 24 8.0
2015-Mar-30 20:00 230 23 7.0
2015-Mar-30 19:00 260 9 7.0
2015-Mar-30 18:00 270 8 8.0
2015-Mar-30 17:00 120 4 8.0
2015-Mar-30 16:00 100 13 gusting 24 8.0
2015-Mar-30 15:00 110 17 gusting 35 8.0
2015-Mar-30 14:00 110 14 gusting 29 7.0
2015-Mar-30 13:00 090 10 gusting 18 7.0
2015-Mar-30 12:00 090 11 gusting 20 8.0
2015-Mar-30 11:00 040 6 9.0
2015-Mar-30 10:00 100 3 9.0
2015-Mar-30 09:00 110 5 9.0
2015-Mar-30 08:00 120 7 9.0
2015-Mar-30 07:00 120 6 8.0
2015-Mar-30 06:00 120 9 gusting 15 9.0
2015-Mar-30 05:00 130 6 9.0
2015-Mar-30 04:00 170 11 9.0
2015-Mar-30 03:00 180 13 9.0
2015-Mar-30 02:00 180 15 9.0
2015-Mar-30 01:00 180 14 9.0
2015-Mar-30 00:00 190 17 9.0
2015-Mar-29 23:00 200 15 10.0
2015-Mar-29 22:00 220 12 9.0
2015-Mar-29 21:00 210 13 gusting 18 9.0
2015-Mar-29 20:00 240 12 7.0
2015-Mar-29 19:00 230 18 9.0
2015-Mar-29 18:00 230 13 9.0
2015-Mar-29 17:00 240 13 8.0
2015-Mar-29 16:00 270 16 8.0
2015-Mar-29 15:00 220 8 8.0
2015-Mar-29 14:00 230 19 9.0
2015-Mar-29 13:00 220 20 9.0
2015-Mar-29 12:00 210 18 9.0
2015-Mar-29 11:00 190 20 gusting 25 9.0
2015-Mar-29 10:00 200 24 gusting 36 7.0
2015-Mar-29 09:00 180 22 gusting 27 9.0
2015-Mar-29 08:00 180 19 gusting 24 9.0
2015-Mar-29 07:00 190 17 9.0
2015-Mar-29 06:00 190 18 9.0
2015-Mar-29 05:00 190 15 9.0
2015-Mar-29 04:00 190 16 9.0
2015-Mar-29 03:00 200 16 10.0
2015-Mar-29 02:00 190 13 10.0
2015-Mar-29 01:00 200 12 9.0
2015-Mar-29 00:00 210 12 9.0
2015-Mar-28 23:00 230 13 9.0